This is the latest recevied weather packets stored in our database for station/object WB4ROX-10. If no packets are shown the sender has not sent any weather packets the latest 10 day(s).
| Time | Temp. | Humidity | Pressure | Rain* | Wind** | Luminosity | Snow |
|---|---|---|---|---|---|---|---|
| 1777681040 | 8.33° C | 52% | 1005.3 hPa | 0 mm | - | - | - |
| 1777639340 | 7.22° C | 49% | 1006.2 hPa | 0 mm | - | - | - |
| 1777638740 | 7.22° C | 47% | 1006.3 hPa | 0 mm | - | - | - |
| 1777631841 | 5° C | 41% | 1006.2 hPa | 0 mm | - | - | - |
| 1777631541 | 5° C | 41% | 1006.1 hPa | 0 mm | - | - | - |
| 1777631241 | 5.56° C | 38% | 1006 hPa | 0 mm | - | - | - |
| 1777630940 | 5° C | 34% | 1006.1 hPa | 0 mm | - | - | - |
| 1777630641 | 5° C | 35% | 1006.2 hPa | 0 mm | - | - | - |
| 1777630341 | 5° C | 41% | 1005.9 hPa | 0 mm | - | - | - |
| 1777629740 | 5° C | 47% | 1005.8 hPa | 0 mm | - | - | - |
| 1777629441 | 5° C | 51% | 1005.9 hPa | 0 mm | - | - | - |
| 1777629141 | 5.56° C | 51% | 1006 hPa | 0 mm | - | - | - |
| 1777628841 | 5.56° C | 52% | 1005.9 hPa | 0 mm | - | - | - |
| 1777628542 | 5.56° C | 51% | 1005.9 hPa | 0 mm | - | - | - |
| 1777628240 | 5.56° C | 52% | 1006 hPa | 0 mm | - | - | - |
| 1777627941 | 5.56° C | 54% | 1005.9 hPa | 0 mm | - | - | - |
| 1777627341 | 5.56° C | 57% | 1006 hPa | 0 mm | - | - | - |
| 1777627041 | 5.56° C | 58% | 1006 hPa | 0 mm | - | - | - |
| 1777626741 | 5.56° C | 58% | 1005.7 hPa | 0 mm | - | - | - |
| 1777626441 | 5.56° C | 59% | 1005.8 hPa | 0 mm | - | - | - |
| 1777626141 | 5.56° C | 60% | 1006 hPa | 0 mm | - | - | - |
| 1777625841 | 5.56° C | 60% | 1005.9 hPa | 0 mm | - | - | - |
| 1777625540 | 5° C | 59% | 1006.1 hPa | 0 mm | - | - | - |
| 1777625241 | 5° C | 60% | 1005.9 hPa | 0 mm | - | - | - |
| 1777624941 | 5° C | 60% | 1005.9 hPa | 0 mm | - | - | - |
* Rain latest hour (hover to see other rain measurements)
** Current wind speed in m/s (hover to see current wind gust speed)